Location: Estes Par
(40.3770°N, 10.0000°W)
Time: 10:49:38
(UTC-07:00)

Tiangong 1 - Visible Passes

Search period start: 17 December 2017 00:00
Search period end: 27 December 2017 00:00
Orbit: 274 x 301 km, 42.8° (Epoch: 17 December)

Date Brightness Start Highest point End Pass type
(mag) Time Alt. Az. Time Alt. Az. Time Alt. Az.
19 Dec 3.1 23:12:44 15° S 23:13:35 17° SSE 23:15:20 10° ESE visible
20 Dec 2.0 23:16:56 31° SSE 23:17:06 31° SSE 23:19:23 10° E visible
21 Dec 1.0 23:20:47 55° SE 23:20:47 55° SE 23:23:03 10° ENE visible
22 Dec 0.8 23:24:23 60° ENE 23:24:23 60° ENE 23:26:31 10° ENE visible
23 Dec 1.0 23:27:45 49° NNE 23:27:45 49° NNE 23:29:52 10° ENE visible
24 Dec 1.1 23:30:56 43° NNE 23:30:56 43° NNE 23:33:07 10° ENE visible
25 Dec 1.0 23:33:57 43° N 23:33:57 43° N 23:36:19 10° ENE visible
26 Dec 0.7 23:36:51 48° N 23:37:01 49° N 23:39:27 10° E visible
